<?xml version="1.0" encoding="UTF-8" standalone="no" ?>
<gpx xmlns="http://www.topografix.com/GPX/1/1" xmlns:xsi="http://www.w3.org/2001/XMLSchema-instance" xsi:schemaLocation="http://www.topografix.com/GPX/1/1 http://www.topografix.com/GPX/1/1/gpx.xsd" version="1.1" creator="VisuGPX - https://www.visugpx.com">
  <metadata>
    <name>Combe de Bayle</name>
    <desc><![CDATA[grp_trc:]]></desc>
  </metadata>
  <trk>
    <name><![CDATA[Combe du Bayle]]></name>
    <cmt><![CDATA[Départ de Jubéo]]></cmt>
    <desc><![CDATA[comment ...]]></desc>
    <trkseg>
      <trkpt lat="44.39985" lon="5.79441">
        <ele>889</ele>
        <time>2021-08-04T08:47:41Z</time>
      </trkpt>
      <trkpt lat="44.39985" lon="5.79441">
        <ele>889</ele>
        <time>2021-08-04T08:47:41Z</time>
      </trkpt>
      <trkpt lat="44.39965" lon="5.79448">
        <ele>891</ele>
        <time>2021-08-04T08:47:41Z</time>
      </trkpt>
      <trkpt lat="44.39797" lon="5.7958">
        <ele>890</ele>
        <time>2021-08-04T08:47:41Z</time>
      </trkpt>
      <trkpt lat="44.39788" lon="5.79583">
        <ele>890</ele>
        <time>2021-08-04T08:47:41Z</time>
      </trkpt>
      <trkpt lat="44.39788" lon="5.79583">
        <ele>889</ele>
        <time>2021-08-04T08:47:41Z</time>
      </trkpt>
      <trkpt lat="44.39766" lon="5.79575">
        <ele>888</ele>
        <time>2021-08-04T08:47:41Z</time>
      </trkpt>
      <trkpt lat="44.39704" lon="5.7954">
        <ele>886</ele>
        <time>2021-08-04T08:47:41Z</time>
      </trkpt>
      <trkpt lat="44.39689" lon="5.79526">
        <ele>884</ele>
        <time>2021-08-04T08:47:41Z</time>
      </trkpt>
      <trkpt lat="44.39679" lon="5.79524">
        <ele>883</ele>
        <time>2021-08-04T08:47:41Z</time>
      </trkpt>
      <trkpt lat="44.39503" lon="5.79576">
        <ele>878</ele>
        <time>2021-08-04T08:47:41Z</time>
      </trkpt>
      <trkpt lat="44.39495" lon="5.79575">
        <ele>876</ele>
        <time>2021-08-04T08:47:41Z</time>
      </trkpt>
      <trkpt lat="44.39438" lon="5.79589">
        <ele>873</ele>
        <time>2021-08-04T08:47:41Z</time>
      </trkpt>
      <trkpt lat="44.39407" lon="5.79588">
        <ele>871</ele>
        <time>2021-08-04T08:47:41Z</time>
      </trkpt>
      <trkpt lat="44.39389" lon="5.79591">
        <ele>870</ele>
        <time>2021-08-04T08:47:41Z</time>
      </trkpt>
      <trkpt lat="44.39349" lon="5.7959">
        <ele>869</ele>
        <time>2021-08-04T08:47:41Z</time>
      </trkpt>
      <trkpt lat="44.39327" lon="5.79596">
        <ele>868</ele>
        <time>2021-08-04T08:47:41Z</time>
      </trkpt>
      <trkpt lat="44.39289" lon="5.79594">
        <ele>867</ele>
        <time>2021-08-04T08:47:41Z</time>
      </trkpt>
      <trkpt lat="44.39281" lon="5.7959">
        <ele>866</ele>
        <time>2021-08-04T08:47:41Z</time>
      </trkpt>
      <trkpt lat="44.39247" lon="5.7959">
        <ele>865</ele>
        <time>2021-08-04T08:47:41Z</time>
      </trkpt>
      <trkpt lat="44.39171" lon="5.79634">
        <ele>860</ele>
        <time>2021-08-04T08:47:41Z</time>
      </trkpt>
      <trkpt lat="44.3913" lon="5.79633">
        <ele>854</ele>
        <time>2021-08-04T08:47:41Z</time>
      </trkpt>
      <trkpt lat="44.39115" lon="5.79635">
        <ele>849</ele>
        <time>2021-08-04T08:47:41Z</time>
      </trkpt>
      <trkpt lat="44.39095" lon="5.79636">
        <ele>844</ele>
        <time>2021-08-04T08:47:41Z</time>
      </trkpt>
      <trkpt lat="44.39088" lon="5.79641">
        <ele>839</ele>
        <time>2021-08-04T08:47:41Z</time>
      </trkpt>
      <trkpt lat="44.39076" lon="5.79643">
        <ele>835</ele>
        <time>2021-08-04T08:47:41Z</time>
      </trkpt>
      <trkpt lat="44.39067" lon="5.79637">
        <ele>832</ele>
        <time>2021-08-04T08:47:41Z</time>
      </trkpt>
      <trkpt lat="44.39054" lon="5.79638">
        <ele>828</ele>
        <time>2021-08-04T08:47:41Z</time>
      </trkpt>
      <trkpt lat="44.39041" lon="5.79632">
        <ele>824</ele>
        <time>2021-08-04T08:47:41Z</time>
      </trkpt>
      <trkpt lat="44.39031" lon="5.79623">
        <ele>821</ele>
        <time>2021-08-04T08:47:41Z</time>
      </trkpt>
      <trkpt lat="44.39021" lon="5.79619">
        <ele>819</ele>
        <time>2021-08-04T08:47:41Z</time>
      </trkpt>
      <trkpt lat="44.39015" lon="5.79608">
        <ele>816</ele>
        <time>2021-08-04T08:47:41Z</time>
      </trkpt>
      <trkpt lat="44.38988" lon="5.79543">
        <ele>813</ele>
        <time>2021-08-04T08:47:41Z</time>
      </trkpt>
      <trkpt lat="44.3899" lon="5.79516">
        <ele>810</ele>
        <time>2021-08-04T08:47:41Z</time>
      </trkpt>
      <trkpt lat="44.38984" lon="5.79506">
        <ele>808</ele>
        <time>2021-08-04T08:47:41Z</time>
      </trkpt>
      <trkpt lat="44.38985" lon="5.7948">
        <ele>806</ele>
        <time>2021-08-04T08:47:41Z</time>
      </trkpt>
      <trkpt lat="44.38967" lon="5.79433">
        <ele>804</ele>
        <time>2021-08-04T08:47:41Z</time>
      </trkpt>
      <trkpt lat="44.38954" lon="5.79418">
        <ele>802</ele>
        <time>2021-08-04T08:47:41Z</time>
      </trkpt>
      <trkpt lat="44.38954" lon="5.79418">
        <ele>795</ele>
        <time>2021-08-04T08:47:41Z</time>
      </trkpt>
      <trkpt lat="44.38939" lon="5.79405">
        <ele>796</ele>
        <time>2021-08-04T08:47:41Z</time>
      </trkpt>
      <trkpt lat="44.38932" lon="5.79402">
        <ele>797</ele>
        <time>2021-08-04T08:47:41Z</time>
      </trkpt>
      <trkpt lat="44.38915" lon="5.79409">
        <ele>800</ele>
        <time>2021-08-04T08:47:41Z</time>
      </trkpt>
      <trkpt lat="44.389" lon="5.79396">
        <ele>804</ele>
        <time>2021-08-04T08:47:41Z</time>
      </trkpt>
      <trkpt lat="44.38891" lon="5.79374">
        <ele>807</ele>
        <time>2021-08-04T08:47:41Z</time>
      </trkpt>
      <trkpt lat="44.38889" lon="5.79364">
        <ele>810</ele>
        <time>2021-08-04T08:47:41Z</time>
      </trkpt>
      <trkpt lat="44.38892" lon="5.79326">
        <ele>813</ele>
        <time>2021-08-04T08:47:41Z</time>
      </trkpt>
      <trkpt lat="44.38897" lon="5.79313">
        <ele>816</ele>
        <time>2021-08-04T08:47:41Z</time>
      </trkpt>
      <trkpt lat="44.38898" lon="5.79301">
        <ele>818</ele>
        <time>2021-08-04T08:47:41Z</time>
      </trkpt>
      <trkpt lat="44.38869" lon="5.79333">
        <ele>822</ele>
        <time>2021-08-04T08:47:41Z</time>
      </trkpt>
      <trkpt lat="44.38859" lon="5.79348">
        <ele>825</ele>
        <time>2021-08-04T08:47:41Z</time>
      </trkpt>
      <trkpt lat="44.38854" lon="5.79361">
        <ele>827</ele>
        <time>2021-08-04T08:47:41Z</time>
      </trkpt>
      <trkpt lat="44.3885" lon="5.79401">
        <ele>830</ele>
        <time>2021-08-04T08:47:41Z</time>
      </trkpt>
      <trkpt lat="44.3885" lon="5.79413">
        <ele>833</ele>
        <time>2021-08-04T08:47:41Z</time>
      </trkpt>
      <trkpt lat="44.38864" lon="5.7946">
        <ele>836</ele>
        <time>2021-08-04T08:47:41Z</time>
      </trkpt>
      <trkpt lat="44.38887" lon="5.79503">
        <ele>839</ele>
        <time>2021-08-04T08:47:41Z</time>
      </trkpt>
      <trkpt lat="44.389" lon="5.79519">
        <ele>842</ele>
        <time>2021-08-04T08:47:41Z</time>
      </trkpt>
      <trkpt lat="44.38905" lon="5.79531">
        <ele>844</ele>
        <time>2021-08-04T08:47:41Z</time>
      </trkpt>
      <trkpt lat="44.38905" lon="5.79546">
        <ele>846</ele>
        <time>2021-08-04T08:47:41Z</time>
      </trkpt>
      <trkpt lat="44.38898" lon="5.79592">
        <ele>849</ele>
        <time>2021-08-04T08:47:41Z</time>
      </trkpt>
      <trkpt lat="44.38905" lon="5.7962">
        <ele>851</ele>
        <time>2021-08-04T08:47:41Z</time>
      </trkpt>
      <trkpt lat="44.38974" lon="5.79757">
        <ele>858</ele>
        <time>2021-08-04T08:47:41Z</time>
      </trkpt>
      <trkpt lat="44.38975" lon="5.79768">
        <ele>861</ele>
        <time>2021-08-04T08:47:41Z</time>
      </trkpt>
      <trkpt lat="44.3897" lon="5.79777">
        <ele>864</ele>
        <time>2021-08-04T08:47:41Z</time>
      </trkpt>
      <trkpt lat="44.38914" lon="5.79815">
        <ele>868</ele>
        <time>2021-08-04T08:47:41Z</time>
      </trkpt>
      <trkpt lat="44.38907" lon="5.79824">
        <ele>870</ele>
        <time>2021-08-04T08:47:41Z</time>
      </trkpt>
      <trkpt lat="44.38898" lon="5.79852">
        <ele>872</ele>
        <time>2021-08-04T08:47:41Z</time>
      </trkpt>
      <trkpt lat="44.38887" lon="5.79894">
        <ele>873</ele>
        <time>2021-08-04T08:47:41Z</time>
      </trkpt>
      <trkpt lat="44.38881" lon="5.79906">
        <ele>874</ele>
        <time>2021-08-04T08:47:41Z</time>
      </trkpt>
      <trkpt lat="44.38873" lon="5.79914">
        <ele>874</ele>
        <time>2021-08-04T08:47:41Z</time>
      </trkpt>
      <trkpt lat="44.38845" lon="5.79924">
        <ele>875</ele>
        <time>2021-08-04T08:47:41Z</time>
      </trkpt>
      <trkpt lat="44.38836" lon="5.79932">
        <ele>876</ele>
        <time>2021-08-04T08:47:41Z</time>
      </trkpt>
      <trkpt lat="44.38834" lon="5.79945">
        <ele>877</ele>
        <time>2021-08-04T08:47:41Z</time>
      </trkpt>
      <trkpt lat="44.38839" lon="5.79978">
        <ele>877</ele>
        <time>2021-08-04T08:47:41Z</time>
      </trkpt>
      <trkpt lat="44.38839" lon="5.79978">
        <ele>879</ele>
        <time>2021-08-04T08:47:41Z</time>
      </trkpt>
      <trkpt lat="44.38835" lon="5.79997">
        <ele>879</ele>
        <time>2021-08-04T08:47:41Z</time>
      </trkpt>
      <trkpt lat="44.38829" lon="5.80007">
        <ele>879</ele>
        <time>2021-08-04T08:47:41Z</time>
      </trkpt>
      <trkpt lat="44.38794" lon="5.80032">
        <ele>879</ele>
        <time>2021-08-04T08:47:41Z</time>
      </trkpt>
      <trkpt lat="44.38788" lon="5.80042">
        <ele>880</ele>
        <time>2021-08-04T08:47:41Z</time>
      </trkpt>
      <trkpt lat="44.38785" lon="5.80096">
        <ele>880</ele>
        <time>2021-08-04T08:47:41Z</time>
      </trkpt>
      <trkpt lat="44.38782" lon="5.80106">
        <ele>880</ele>
        <time>2021-08-04T08:47:41Z</time>
      </trkpt>
      <trkpt lat="44.38725" lon="5.80175">
        <ele>880</ele>
        <time>2021-08-04T08:47:41Z</time>
      </trkpt>
      <trkpt lat="44.38715" lon="5.8018">
        <ele>880</ele>
        <time>2021-08-04T08:47:41Z</time>
      </trkpt>
      <trkpt lat="44.38676" lon="5.80175">
        <ele>880</ele>
        <time>2021-08-04T08:47:41Z</time>
      </trkpt>
      <trkpt lat="44.38669" lon="5.80184">
        <ele>881</ele>
        <time>2021-08-04T08:47:41Z</time>
      </trkpt>
      <trkpt lat="44.38664" lon="5.80208">
        <ele>881</ele>
        <time>2021-08-04T08:47:41Z</time>
      </trkpt>
      <trkpt lat="44.38655" lon="5.80226">
        <ele>882</ele>
        <time>2021-08-04T08:47:41Z</time>
      </trkpt>
      <trkpt lat="44.3865" lon="5.80233">
        <ele>882</ele>
        <time>2021-08-04T08:47:41Z</time>
      </trkpt>
      <trkpt lat="44.38632" lon="5.80249">
        <ele>882</ele>
        <time>2021-08-04T08:47:41Z</time>
      </trkpt>
      <trkpt lat="44.38627" lon="5.80261">
        <ele>882</ele>
        <time>2021-08-04T08:47:41Z</time>
      </trkpt>
      <trkpt lat="44.38628" lon="5.80294">
        <ele>882</ele>
        <time>2021-08-04T08:47:41Z</time>
      </trkpt>
      <trkpt lat="44.38625" lon="5.80303">
        <ele>882</ele>
        <time>2021-08-04T08:47:41Z</time>
      </trkpt>
      <trkpt lat="44.38619" lon="5.80312">
        <ele>881</ele>
        <time>2021-08-04T08:47:41Z</time>
      </trkpt>
      <trkpt lat="44.38605" lon="5.80319">
        <ele>881</ele>
        <time>2021-08-04T08:47:41Z</time>
      </trkpt>
      <trkpt lat="44.38588" lon="5.80319">
        <ele>881</ele>
        <time>2021-08-04T08:47:41Z</time>
      </trkpt>
      <trkpt lat="44.38548" lon="5.80296">
        <ele>881</ele>
        <time>2021-08-04T08:47:41Z</time>
      </trkpt>
      <trkpt lat="44.3854" lon="5.80297">
        <ele>881</ele>
        <time>2021-08-04T08:47:41Z</time>
      </trkpt>
      <trkpt lat="44.38531" lon="5.80305">
        <ele>881</ele>
        <time>2021-08-04T08:47:41Z</time>
      </trkpt>
      <trkpt lat="44.38536" lon="5.80338">
        <ele>881</ele>
        <time>2021-08-04T08:47:41Z</time>
      </trkpt>
      <trkpt lat="44.38532" lon="5.80352">
        <ele>881</ele>
        <time>2021-08-04T08:47:41Z</time>
      </trkpt>
      <trkpt lat="44.38505" lon="5.80376">
        <ele>881</ele>
        <time>2021-08-04T08:47:41Z</time>
      </trkpt>
      <trkpt lat="44.38505" lon="5.80391">
        <ele>884</ele>
        <time>2021-08-04T08:47:41Z</time>
      </trkpt>
      <trkpt lat="44.38534" lon="5.8044">
        <ele>884</ele>
        <time>2021-08-04T08:47:41Z</time>
      </trkpt>
      <trkpt lat="44.38546" lon="5.80445">
        <ele>884</ele>
        <time>2021-08-04T08:47:41Z</time>
      </trkpt>
      <trkpt lat="44.3859" lon="5.80446">
        <ele>884</ele>
        <time>2021-08-04T08:47:41Z</time>
      </trkpt>
      <trkpt lat="44.38631" lon="5.80463">
        <ele>884</ele>
        <time>2021-08-04T08:47:41Z</time>
      </trkpt>
      <trkpt lat="44.38658" lon="5.80481">
        <ele>884</ele>
        <time>2021-08-04T08:47:41Z</time>
      </trkpt>
      <trkpt lat="44.38671" lon="5.80482">
        <ele>884</ele>
        <time>2021-08-04T08:47:41Z</time>
      </trkpt>
      <trkpt lat="44.38687" lon="5.80473">
        <ele>885</ele>
        <time>2021-08-04T08:47:41Z</time>
      </trkpt>
      <trkpt lat="44.38707" lon="5.80455">
        <ele>884</ele>
        <time>2021-08-04T08:47:41Z</time>
      </trkpt>
      <trkpt lat="44.38721" lon="5.80452">
        <ele>884</ele>
        <time>2021-08-04T08:47:41Z</time>
      </trkpt>
      <trkpt lat="44.38729" lon="5.80455">
        <ele>884</ele>
        <time>2021-08-04T08:47:41Z</time>
      </trkpt>
      <trkpt lat="44.38733" lon="5.80464">
        <ele>884</ele>
        <time>2021-08-04T08:47:41Z</time>
      </trkpt>
      <trkpt lat="44.38734" lon="5.80479">
        <ele>884</ele>
        <time>2021-08-04T08:47:41Z</time>
      </trkpt>
      <trkpt lat="44.38727" lon="5.80499">
        <ele>884</ele>
        <time>2021-08-04T08:47:41Z</time>
      </trkpt>
      <trkpt lat="44.38662" lon="5.80609">
        <ele>883</ele>
        <time>2021-08-04T08:47:41Z</time>
      </trkpt>
      <trkpt lat="44.38613" lon="5.80629">
        <ele>881</ele>
        <time>2021-08-04T08:47:41Z</time>
      </trkpt>
      <trkpt lat="44.38556" lon="5.80683">
        <ele>877</ele>
        <time>2021-08-04T08:47:41Z</time>
      </trkpt>
      <trkpt lat="44.38509" lon="5.80771">
        <ele>871</ele>
        <time>2021-08-04T08:47:41Z</time>
      </trkpt>
      <trkpt lat="44.385" lon="5.80799">
        <ele>866</ele>
        <time>2021-08-04T08:47:41Z</time>
      </trkpt>
      <trkpt lat="44.385" lon="5.80799">
        <ele>852</ele>
        <time>2021-08-04T08:47:41Z</time>
      </trkpt>
      <trkpt lat="44.385" lon="5.80817">
        <ele>852</ele>
        <time>2021-08-04T08:47:41Z</time>
      </trkpt>
      <trkpt lat="44.38533" lon="5.80937">
        <ele>854</ele>
        <time>2021-08-04T08:47:41Z</time>
      </trkpt>
      <trkpt lat="44.38585" lon="5.81064">
        <ele>858</ele>
        <time>2021-08-04T08:47:41Z</time>
      </trkpt>
      <trkpt lat="44.38597" lon="5.81123">
        <ele>861</ele>
        <time>2021-08-04T08:47:41Z</time>
      </trkpt>
      <trkpt lat="44.38593" lon="5.81192">
        <ele>863</ele>
        <time>2021-08-04T08:47:41Z</time>
      </trkpt>
      <trkpt lat="44.38602" lon="5.81201">
        <ele>865</ele>
        <time>2021-08-04T08:47:41Z</time>
      </trkpt>
      <trkpt lat="44.38612" lon="5.812">
        <ele>867</ele>
        <time>2021-08-04T08:47:41Z</time>
      </trkpt>
      <trkpt lat="44.3862" lon="5.81191">
        <ele>868</ele>
        <time>2021-08-04T08:47:41Z</time>
      </trkpt>
      <trkpt lat="44.38637" lon="5.81133">
        <ele>870</ele>
        <time>2021-08-04T08:47:41Z</time>
      </trkpt>
      <trkpt lat="44.38645" lon="5.81084">
        <ele>872</ele>
        <time>2021-08-04T08:47:41Z</time>
      </trkpt>
      <trkpt lat="44.38648" lon="5.81035">
        <ele>874</ele>
        <time>2021-08-04T08:47:41Z</time>
      </trkpt>
      <trkpt lat="44.38653" lon="5.81017">
        <ele>876</ele>
        <time>2021-08-04T08:47:41Z</time>
      </trkpt>
      <trkpt lat="44.38665" lon="5.80995">
        <ele>877</ele>
        <time>2021-08-04T08:47:41Z</time>
      </trkpt>
      <trkpt lat="44.38671" lon="5.8101">
        <ele>878</ele>
        <time>2021-08-04T08:47:41Z</time>
      </trkpt>
      <trkpt lat="44.38674" lon="5.81115">
        <ele>880</ele>
        <time>2021-08-04T08:47:41Z</time>
      </trkpt>
      <trkpt lat="44.38673" lon="5.81136">
        <ele>882</ele>
        <time>2021-08-04T08:47:41Z</time>
      </trkpt>
      <trkpt lat="44.38673" lon="5.81147">
        <ele>883</ele>
        <time>2021-08-04T08:47:41Z</time>
      </trkpt>
      <trkpt lat="44.38679" lon="5.81163">
        <ele>884</ele>
        <time>2021-08-04T08:47:41Z</time>
      </trkpt>
      <trkpt lat="44.38681" lon="5.81201">
        <ele>885</ele>
        <time>2021-08-04T08:47:41Z</time>
      </trkpt>
      <trkpt lat="44.38676" lon="5.81272">
        <ele>886</ele>
        <time>2021-08-04T08:47:41Z</time>
      </trkpt>
      <trkpt lat="44.38666" lon="5.81288">
        <ele>887</ele>
        <time>2021-08-04T08:47:41Z</time>
      </trkpt>
      <trkpt lat="44.38666" lon="5.81288">
        <ele>892</ele>
        <time>2021-08-04T08:47:41Z</time>
      </trkpt>
      <trkpt lat="44.38661" lon="5.81297">
        <ele>892</ele>
        <time>2021-08-04T08:47:41Z</time>
      </trkpt>
      <trkpt lat="44.38649" lon="5.81358">
        <ele>892</ele>
        <time>2021-08-04T08:47:41Z</time>
      </trkpt>
      <trkpt lat="44.38629" lon="5.8155">
        <ele>893</ele>
        <time>2021-08-04T08:47:41Z</time>
      </trkpt>
      <trkpt lat="44.38634" lon="5.81579">
        <ele>893</ele>
        <time>2021-08-04T08:47:41Z</time>
      </trkpt>
      <trkpt lat="44.38626" lon="5.81636">
        <ele>894</ele>
        <time>2021-08-04T08:47:41Z</time>
      </trkpt>
      <trkpt lat="44.38618" lon="5.8165">
        <ele>894</ele>
        <time>2021-08-04T08:47:41Z</time>
      </trkpt>
      <trkpt lat="44.38623" lon="5.81659">
        <ele>895</ele>
        <time>2021-08-04T08:47:41Z</time>
      </trkpt>
      <trkpt lat="44.3863" lon="5.81646">
        <ele>895</ele>
        <time>2021-08-04T08:47:41Z</time>
      </trkpt>
      <trkpt lat="44.38732" lon="5.81403">
        <ele>903</ele>
        <time>2021-08-04T08:47:41Z</time>
      </trkpt>
      <trkpt lat="44.38772" lon="5.81353">
        <ele>909</ele>
        <time>2021-08-04T08:47:41Z</time>
      </trkpt>
      <trkpt lat="44.38785" lon="5.81314">
        <ele>914</ele>
        <time>2021-08-04T08:47:41Z</time>
      </trkpt>
      <trkpt lat="44.38805" lon="5.81272">
        <ele>918</ele>
        <time>2021-08-04T08:47:41Z</time>
      </trkpt>
      <trkpt lat="44.38813" lon="5.81274">
        <ele>921</ele>
        <time>2021-08-04T08:47:41Z</time>
      </trkpt>
      <trkpt lat="44.38818" lon="5.81283">
        <ele>924</ele>
        <time>2021-08-04T08:47:41Z</time>
      </trkpt>
      <trkpt lat="44.38811" lon="5.81307">
        <ele>926</ele>
        <time>2021-08-04T08:47:41Z</time>
      </trkpt>
      <trkpt lat="44.38811" lon="5.81319">
        <ele>927</ele>
        <time>2021-08-04T08:47:41Z</time>
      </trkpt>
      <trkpt lat="44.38821" lon="5.81389">
        <ele>931</ele>
        <time>2021-08-04T08:47:41Z</time>
      </trkpt>
      <trkpt lat="44.38824" lon="5.81503">
        <ele>936</ele>
        <time>2021-08-04T08:47:41Z</time>
      </trkpt>
      <trkpt lat="44.38856" lon="5.81644">
        <ele>945</ele>
        <time>2021-08-04T08:47:41Z</time>
      </trkpt>
      <trkpt lat="44.38862" lon="5.81655">
        <ele>951</ele>
        <time>2021-08-04T08:47:41Z</time>
      </trkpt>
      <trkpt lat="44.38866" lon="5.81669">
        <ele>955</ele>
        <time>2021-08-04T08:47:41Z</time>
      </trkpt>
      <trkpt lat="44.3886" lon="5.81711">
        <ele>958</ele>
        <time>2021-08-04T08:47:41Z</time>
      </trkpt>
      <trkpt lat="44.38864" lon="5.81712">
        <ele>961</ele>
        <time>2021-08-04T08:47:41Z</time>
      </trkpt>
      <trkpt lat="44.38898" lon="5.81573">
        <ele>963</ele>
        <time>2021-08-04T08:47:41Z</time>
      </trkpt>
      <trkpt lat="44.38912" lon="5.8154">
        <ele>965</ele>
        <time>2021-08-04T08:47:41Z</time>
      </trkpt>
      <trkpt lat="44.38916" lon="5.81523">
        <ele>966</ele>
        <time>2021-08-04T08:47:41Z</time>
      </trkpt>
      <trkpt lat="44.38915" lon="5.81495">
        <ele>966</ele>
        <time>2021-08-04T08:47:41Z</time>
      </trkpt>
      <trkpt lat="44.38915" lon="5.81495">
        <ele>968</ele>
        <time>2021-08-04T08:47:41Z</time>
      </trkpt>
      <trkpt lat="44.38917" lon="5.81474">
        <ele>968</ele>
        <time>2021-08-04T08:47:41Z</time>
      </trkpt>
      <trkpt lat="44.38923" lon="5.8145">
        <ele>968</ele>
        <time>2021-08-04T08:47:41Z</time>
      </trkpt>
      <trkpt lat="44.38999" lon="5.81291">
        <ele>966</ele>
        <time>2021-08-04T08:47:41Z</time>
      </trkpt>
      <trkpt lat="44.39029" lon="5.81263">
        <ele>964</ele>
        <time>2021-08-04T08:47:41Z</time>
      </trkpt>
      <trkpt lat="44.39068" lon="5.81235">
        <ele>961</ele>
        <time>2021-08-04T08:47:41Z</time>
      </trkpt>
      <trkpt lat="44.39074" lon="5.81226">
        <ele>960</ele>
        <time>2021-08-04T08:47:41Z</time>
      </trkpt>
      <trkpt lat="44.39096" lon="5.81119">
        <ele>955</ele>
        <time>2021-08-04T08:47:41Z</time>
      </trkpt>
      <trkpt lat="44.39125" lon="5.81065">
        <ele>951</ele>
        <time>2021-08-04T08:47:41Z</time>
      </trkpt>
      <trkpt lat="44.39129" lon="5.81044">
        <ele>948</ele>
        <time>2021-08-04T08:47:41Z</time>
      </trkpt>
      <trkpt lat="44.39129" lon="5.80981">
        <ele>945</ele>
        <time>2021-08-04T08:47:41Z</time>
      </trkpt>
      <trkpt lat="44.39113" lon="5.80908">
        <ele>942</ele>
        <time>2021-08-04T08:47:41Z</time>
      </trkpt>
      <trkpt lat="44.39098" lon="5.80868">
        <ele>939</ele>
        <time>2021-08-04T08:47:41Z</time>
      </trkpt>
      <trkpt lat="44.39071" lon="5.80827">
        <ele>938</ele>
        <time>2021-08-04T08:47:41Z</time>
      </trkpt>
      <trkpt lat="44.39071" lon="5.80827">
        <ele>933</ele>
        <time>2021-08-04T08:47:41Z</time>
      </trkpt>
      <trkpt lat="44.39057" lon="5.80807">
        <ele>933</ele>
        <time>2021-08-04T08:47:41Z</time>
      </trkpt>
      <trkpt lat="44.3905" lon="5.80784">
        <ele>933</ele>
        <time>2021-08-04T08:47:41Z</time>
      </trkpt>
      <trkpt lat="44.39044" lon="5.80728">
        <ele>934</ele>
        <time>2021-08-04T08:47:41Z</time>
      </trkpt>
      <trkpt lat="44.39055" lon="5.80652">
        <ele>935</ele>
        <time>2021-08-04T08:47:41Z</time>
      </trkpt>
      <trkpt lat="44.39065" lon="5.80605">
        <ele>935</ele>
        <time>2021-08-04T08:47:41Z</time>
      </trkpt>
      <trkpt lat="44.39066" lon="5.80568">
        <ele>936</ele>
        <time>2021-08-04T08:47:41Z</time>
      </trkpt>
      <trkpt lat="44.39043" lon="5.80389">
        <ele>934</ele>
        <time>2021-08-04T08:47:41Z</time>
      </trkpt>
      <trkpt lat="44.39045" lon="5.80378">
        <ele>934</ele>
        <time>2021-08-04T08:47:41Z</time>
      </trkpt>
      <trkpt lat="44.39056" lon="5.80373">
        <ele>934</ele>
        <time>2021-08-04T08:47:41Z</time>
      </trkpt>
      <trkpt lat="44.39083" lon="5.80372">
        <ele>934</ele>
        <time>2021-08-04T08:47:41Z</time>
      </trkpt>
      <trkpt lat="44.39121" lon="5.80395">
        <ele>936</ele>
        <time>2021-08-04T08:47:41Z</time>
      </trkpt>
      <trkpt lat="44.39132" lon="5.80393">
        <ele>937</ele>
        <time>2021-08-04T08:47:41Z</time>
      </trkpt>
      <trkpt lat="44.3914" lon="5.80388">
        <ele>938</ele>
        <time>2021-08-04T08:47:41Z</time>
      </trkpt>
      <trkpt lat="44.39147" lon="5.80381">
        <ele>939</ele>
        <time>2021-08-04T08:47:41Z</time>
      </trkpt>
      <trkpt lat="44.39152" lon="5.80373">
        <ele>940</ele>
        <time>2021-08-04T08:47:41Z</time>
      </trkpt>
      <trkpt lat="44.39154" lon="5.8036">
        <ele>940</ele>
        <time>2021-08-04T08:47:41Z</time>
      </trkpt>
      <trkpt lat="44.3915" lon="5.80305">
        <ele>939</ele>
        <time>2021-08-04T08:47:41Z</time>
      </trkpt>
      <trkpt lat="44.39153" lon="5.80293">
        <ele>940</ele>
        <time>2021-08-04T08:47:41Z</time>
      </trkpt>
      <trkpt lat="44.39168" lon="5.80274">
        <ele>940</ele>
        <time>2021-08-04T08:47:41Z</time>
      </trkpt>
      <trkpt lat="44.39168" lon="5.80274">
        <ele>944</ele>
        <time>2021-08-04T08:47:41Z</time>
      </trkpt>
      <trkpt lat="44.39177" lon="5.80245">
        <ele>945</ele>
        <time>2021-08-04T08:47:41Z</time>
      </trkpt>
      <trkpt lat="44.39188" lon="5.80142">
        <ele>945</ele>
        <time>2021-08-04T08:47:41Z</time>
      </trkpt>
      <trkpt lat="44.39201" lon="5.80082">
        <ele>945</ele>
        <time>2021-08-04T08:47:41Z</time>
      </trkpt>
      <trkpt lat="44.39217" lon="5.8006">
        <ele>946</ele>
        <time>2021-08-04T08:47:41Z</time>
      </trkpt>
      <trkpt lat="44.39244" lon="5.80037">
        <ele>948</ele>
        <time>2021-08-04T08:47:41Z</time>
      </trkpt>
      <trkpt lat="44.39251" lon="5.80023">
        <ele>949</ele>
        <time>2021-08-04T08:47:41Z</time>
      </trkpt>
      <trkpt lat="44.39283" lon="5.79822">
        <ele>951</ele>
        <time>2021-08-04T08:47:41Z</time>
      </trkpt>
      <trkpt lat="44.39287" lon="5.79803">
        <ele>953</ele>
        <time>2021-08-04T08:47:41Z</time>
      </trkpt>
      <trkpt lat="44.39305" lon="5.79772">
        <ele>953</ele>
        <time>2021-08-04T08:47:41Z</time>
      </trkpt>
      <trkpt lat="44.39313" lon="5.79769">
        <ele>953</ele>
        <time>2021-08-04T08:47:41Z</time>
      </trkpt>
      <trkpt lat="44.39323" lon="5.7977">
        <ele>953</ele>
        <time>2021-08-04T08:47:41Z</time>
      </trkpt>
      <trkpt lat="44.3933" lon="5.79775">
        <ele>953</ele>
        <time>2021-08-04T08:47:41Z</time>
      </trkpt>
      <trkpt lat="44.39338" lon="5.79787">
        <ele>953</ele>
        <time>2021-08-04T08:47:41Z</time>
      </trkpt>
      <trkpt lat="44.39354" lon="5.79801">
        <ele>954</ele>
        <time>2021-08-04T08:47:41Z</time>
      </trkpt>
      <trkpt lat="44.39363" lon="5.79797">
        <ele>954</ele>
        <time>2021-08-04T08:47:41Z</time>
      </trkpt>
      <trkpt lat="44.3937" lon="5.79789">
        <ele>953</ele>
        <time>2021-08-04T08:47:41Z</time>
      </trkpt>
      <trkpt lat="44.39377" lon="5.79784">
        <ele>953</ele>
        <time>2021-08-04T08:47:41Z</time>
      </trkpt>
      <trkpt lat="44.39385" lon="5.79785">
        <ele>952</ele>
        <time>2021-08-04T08:47:41Z</time>
      </trkpt>
      <trkpt lat="44.39392" lon="5.79788">
        <ele>952</ele>
        <time>2021-08-04T08:47:41Z</time>
      </trkpt>
      <trkpt lat="44.39392" lon="5.79788">
        <ele>952</ele>
        <time>2021-08-04T08:47:41Z</time>
      </trkpt>
      <trkpt lat="44.39409" lon="5.79787">
        <ele>952</ele>
        <time>2021-08-04T08:47:41Z</time>
      </trkpt>
      <trkpt lat="44.39445" lon="5.79773">
        <ele>950</ele>
        <time>2021-08-04T08:47:41Z</time>
      </trkpt>
      <trkpt lat="44.39455" lon="5.79766">
        <ele>948</ele>
        <time>2021-08-04T08:47:41Z</time>
      </trkpt>
      <trkpt lat="44.39518" lon="5.79748">
        <ele>945</ele>
        <time>2021-08-04T08:47:41Z</time>
      </trkpt>
      <trkpt lat="44.39566" lon="5.79718">
        <ele>940</ele>
        <time>2021-08-04T08:47:41Z</time>
      </trkpt>
      <trkpt lat="44.39724" lon="5.79694">
        <ele>933</ele>
        <time>2021-08-04T08:47:41Z</time>
      </trkpt>
      <trkpt lat="44.39724" lon="5.79694">
        <ele>918</ele>
        <time>2021-08-04T08:47:41Z</time>
      </trkpt>
      <trkpt lat="44.39872" lon="5.79678">
        <ele>916</ele>
        <time>2021-08-04T08:47:41Z</time>
      </trkpt>
      <trkpt lat="44.39904" lon="5.79658">
        <ele>914</ele>
        <time>2021-08-04T08:47:41Z</time>
      </trkpt>
      <trkpt lat="44.39914" lon="5.79642">
        <ele>912</ele>
        <time>2021-08-04T08:47:41Z</time>
      </trkpt>
      <trkpt lat="44.39955" lon="5.79458">
        <ele>907</ele>
        <time>2021-08-04T08:47:41Z</time>
      </trkpt>
      <trkpt lat="44.39962" lon="5.79451">
        <ele>903</ele>
        <time>2021-08-04T08:47:41Z</time>
      </trkpt>
      <trkpt lat="44.39969" lon="5.79446">
        <ele>892</ele>
        <time>2021-08-04T08:47:41Z</time>
      </trkpt>
    </trkseg>
  </trk>
</gpx>